Dewpoint
67 67 67 67 67 67 67 67 67 67 67 67 67 66 65 65 65 65 65 65 64 64 66 67 68 66 68 68 66 65 65 65 65 64 64 65 63 64 65 64 64 63 63
67 67 67 67 67 67 67 67 66 66 66 66 66 66 66 65 65 65 65 64 64 64 65 67 67 67 67 67 67 66 65 65 63 63 64 65 64 64 65 63 64 63 63
61 64 66 66 66 67 66 67 67 67 66 65 65 66 66 65 65 65 64 64 64 63 63 65 66 67 66 66 67 66 65 64 63 63 63 65 64 64 64 64 63 63 63
57 58 58 61 66 68 67 66 66 65 66 65 65 65 65 65 65 65 65 64 64 64 63 63 64 64 65 65 66 66 65 65 64 64 63 65 65 64 64 64 63 63 62
53 53 56 58 61 63 66 66 66 65 65 65 65 65 65 64 65 65 65 64 64 63 63 63 63 63 64 65 66 66 65 65 64 64 63 64 65 65 64 63 62 62 62
48 48 50 52 53 58 63 64 64 65 64 64 64 63 64 64 64 64 64 64 63 63 62 62 62 62 62 63 64 65 66 65 65 64 63 64 65 65 63 63 62 61 61
45 46 48 49 51 52 52 56 63 61 60 62 61 61 62 63 63 63 63 63 62 62 62 61 61 60 60 60 62 64 65 65 65 64 63 63 63 64 63 63 62 61 61
44 45 46 47 49 50 50 50 55 62 62 61 59 57 52 52 58 62 63 63 62 62 62 62 61 60 60 60 61 63 65 65 64 64 63 63 63 64 63 63 62 61 60
44 45 46 47 47 48 49 51 53 54 60 62 62 58 55 54 57 58 58 61 62 62 62 62 62 61 60 60 60 61 63 64 64 64 64 63 63 62 63 62 62 61 60
41 43 46 47 47 48 48 49 51 52 56 58 60 62 58 56 54 53 57 60 61 60 60 61 61 61 61 60 60 60 60 61 62 63 63 63 63 63 64 62 61 61 60
40 42 44 45 45 47 48 49 49 50 53 54 58 57 57 55 54 52 52 54 59 59 59 60 61 61 61 61 60 61 60 60 60 61 63 63 63 63 64 63 62 61 60
39 40 41 42 43 44 46 48 50 51 51 52 55 58 56 55 53 52 49 51 53 57 58 58 60 61 61 61 61 60 59 59 58 59 60 62 63 63 63 63 62 61 60
36 37 38 40 40 42 43 45 47 48 50 51 52 56 57 56 55 53 52 50 49 52 56 58 60 60 60 60 60 59 59 58 58 58 58 59 61 62 62 62 62 61 60
34 36 36 38 39 40 42 44 46 48 50 52 52 52 57 57 57 55 53 52 50 50 54 54 59 59 60 59 60 58 59 57 57 57 57 57 58 60 60 61 61 61 60
33 33 34 35 37 38 39 42 43 45 48 51 52 53 57 57 57 57 55 54 52 49 50 52 54 59 59 59 59 58 59 57 56 56 55 56 57 58 58 59 60 61 60
31 32 32 33 35 36 37 38 39 41 43 46 53 53 55 57 56 57 57 56 55 53 49 51 55 56 58 58 58 58 58 57 56 56 55 55 55 55 57 58 59 59 59
30 31 31 32 32 33 34 35 36 37 38 42 51 53 55 56 57 56 57 57 56 55 52 52 55 56 57 57 57 57 58 58 57 55 54 54 54 54 54 56 57 57 58
29 29 30 31 31 31 32 33 34 35 37 40 44 52 54 56 56 56 56 55 56 56 54 52 53 54 56 57 57 56 57 58 57 54 53 52 53 55 53 53 55 55 56
27 28 29 30 31 31 31 31 33 34 36 38 41 45 54 55 55 55 55 55 56 55 55 52 53 55 55 57 56 57 57 57 57 56 53 52 54 54 53 53 54 54 55
26 26 27 29 31 31 30 30 31 32 32 33 35 37 39 38 40 51 55 56 55 55 55 55 54 53 53 55 56 54 54 54 54 53 52 52 51 52 52 53 53 54 54
25 25 26 27 29 30 30 29 29 29 29 30 30 32 34 35 35 36 43 55 56 56 55 54 53 53 52 53 53 55 53 51 49 49 49 47 49 49 49 49 51 51 52
23 24 24 25 27 28 31 29 28 27 27 27 27 28 30 31 33 35 37 45 46 55 55 54 53 53 53 53 54 54 50 48 49 44 48 45 42 46 43 45 47 49 49
21 22 23 24 25 27 28 28 28 27 26 26 26 27 27 28 30 33 35 34 34 34 35 45 53 53 53 54 54 54 50 52 52 45 47 45 37 41 36 38 40 43 46
20 22 21 21 22 25 26 26 26 26 26 26 26 27 27 28 29 30 33 33 32 32 32 32 32 35 40 54 55 54 53 48 39 38 42 46 33 36 33 34 36 39 42
19 20 21 21 21 21 23 24 23 23 23 23 24 26 27 26 29 28 27 29 29 29 31 33 32 32 32 33 41 51 47 46 41 39 36 41 32 33 32 32 32 34 38
19 19 19 20 21 21 21 21 22 22 21 21 22 23 25 27 28 28 25 25 24 24 27 30 31 31 31 31 32 35 47 48 42 40 36 41 31 33 37 29 30 32 34
Wind_Speed
9 8 9 9 11 10 13 13 14 15 15 14 14 15 15 16 14 12 12 17 20 18 18 21 21 20 22 23 23 24 24 24 25 25 22 21 26 27 24 23 23 23 20
7 7 9 10 11 10 12 16 16 16 15 14 15 15 15 15 14 14 14 16 21 21 19 20 19 19 22 22 22 22 23 26 28 26 26 24 25 27 26 24 23 23 21
7 7 10 13 12 11 15 15 16 15 13 12 15 15 14 13 14 16 15 15 15 21 20 20 19 17 18 18 20 22 22 24 26 28 27 24 26 28 26 26 24 24 23
7 3 5 9 10 14 15 16 15 16 17 16 14 16 14 15 17 16 15 15 14 12 15 20 21 21 19 18 19 20 21 23 25 27 28 26 27 24 27 28 26 25 24
11 9 6 7 8 9 12 16 16 16 16 15 16 13 14 15 16 16 19 16 15 12 11 13 20 22 22 21 20 21 22 23 25 28 30 30 30 27 28 29 28 26 25
13 11 10 10 10 10 10 10 14 16 10 12 14 12 13 12 13 13 14 12 14 16 15 16 15 16 20 21 21 22 23 24 25 29 30 30 31 29 30 31 30 27 26
10 10 9 10 9 10 12 13 10 13 16 20 7 8 14 13 10 13 11 11 12 13 11 13 14 14 16 22 22 22 24 24 24 28 30 31 35 32 31 30 31 29 27
9 9 10 9 8 9 11 14 11 6 12 15 16 14 16 18 17 20 15 16 17 14 19 17 17 18 17 16 18 22 23 26 24 26 27 30 33 31 33 33 33 31 29
9 9 9 9 9 8 9 12 13 13 10 10 18 9 5 10 12 11 22 19 21 18 16 17 21 20 21 19 19 21 22 26 25 25 26 28 27 30 34 34 33 33 31
13 13 11 10 9 7 8 10 9 12 12 13 7 17 14 3 7 7 5 22 22 21 21 19 20 23 24 22 23 22 22 26 27 25 26 28 29 32 32 34 35 34 33
12 13 13 13 13 11 10 12 12 12 12 15 15 7 12 13 9 7 9 12 14 20 22 19 20 23 22 21 22 24 26 24 26 26 25 29 31 34 35 36 35 34 35
13 13 16 14 14 13 12 14 14 13 14 16 18 17 18 12 12 13 10 9 21 17 23 22 22 20 18 19 21 25 30 29 27 26 26 26 27 34 38 38 36 37 36
15 15 17 17 15 17 17 15 16 16 17 17 20 21 20 22 16 21 22 16 15 13 13 22 21 20 18 18 22 25 27 29 28 26 26 25 24 26 34 39 40 39 39
15 17 18 17 16 17 18 16 16 16 18 19 21 24 23 23 19 19 20 22 15 15 13 12 17 21 20 20 21 26 21 29 28 26 28 28 27 28 27 30 39 41 40
17 17 16 17 16 17 17 17 15 18 16 20 22 22 23 21 19 21 21 20 24 23 21 16 17 19 21 20 23 22 25 24 29 26 28 28 29 30 31 32 37 43 42
16 17 17 16 16 17 16 17 16 17 18 19 20 21 23 21 20 21 21 20 20 25 27 16 19 13 19 18 17 21 22 22 24 27 29 29 30 31 33 37 38 44 42
18 17 18 18 18 18 18 18 18 18 20 20 20 21 22 21 19 19 21 20 22 22 26 17 13 15 15 15 14 18 18 18 15 25 29 30 29 30 33 34 34 33 36
17 17 17 19 19 19 18 19 19 19 19 19 20 20 22 17 20 21 20 23 23 22 23 26 15 13 15 19 12 18 17 15 16 20 27 27 26 23 26 32 35 36 36
19 20 19 22 21 22 22 21 19 20 21 19 21 23 18 21 25 22 23 19 22 21 21 22 18 11 9 15 13 15 17 15 14 16 24 26 25 23 24 28 29 28 36
21 21 22 21 22 24 24 25 22 24 24 22 23 22 21 23 20 16 22 20 20 18 18 19 19 14 7 7 12 21 16 12 13 9 14 17 21 23 26 28 29 32 34
19 20 21 22 24 29 30 29 24 24 26 27 27 26 22 26 25 22 17 18 16 19 20 22 17 15 15 15 23 17 17 15 9 9 11 9 11 14 15 16 19 28 32
21 22 24 26 29 29 38 34 28 24 27 27 29 29 28 31 33 29 26 16 5 25 23 19 22 22 23 24 19 20 15 11 11 9 13 13 6 12 7 7 9 21 28
20 23 26 26 27 31 39 36 31 22 23 26 27 30 28 27 34 27 21 15 20 24 19 4 18 19 21 22 21 20 21 22 16 12 13 14 6 10 0 3 1 10 17
19 20 26 26 25 27 37 37 28 20 21 25 27 29 29 31 36 33 18 16 19 23 23 15 13 11 9 15 26 29 25 13 9 7 6 14 6 7 3 2 9 4 9
20 20 21 25 27 27 38 37 26 22 23 25 25 26 33 32 39 38 23 19 22 26 15 16 17 20 20 22 14 21 19 21 8 8 6 9 7 6 3 1 3 9 3
17 18 19 23 27 25 36 39 32 25 25 24 24 26 36 36 39 41 33 31 27 26 23 19 20 23 20 21 23 13 18 23 12 8 10 12 9 7 5 1 3 6 5
Wind_Direction
215 212 218 219 219 221 218 218 218 219 219 210 206 204 212 222 233 241 243 237 240 239 225 218 213 215 213 211 214 214 208 194 191 194 193 205 197 179 176 173 170 167 170
247 235 236 226 220 212 216 217 216 218 223 222 223 213 213 218 226 235 242 248 242 244 237 224 219 219 213 210 208 211 210 202 200 199 195 202 200 188 179 174 173 168 171
47 355 257 244 240 225 225 220 212 206 210 212 231 228 220 222 224 230 234 242 253 249 242 231 230 231 226 219 209 209 208 206 204 204 197 199 202 192 180 174 175 173 173
11 350 324 333 279 226 219 219 216 214 209 197 216 226 222 224 222 224 231 232 238 249 255 247 242 241 238 233 222 215 211 209 203 201 200 199 197 194 180 175 175 177 175
18 1 345 311 319 318 240 227 209 208 213 206 196 228 225 232 233 224 225 223 219 230 248 259 252 251 244 235 223 221 218 212 203 202 203 203 200 193 186 177 177 180 178
6 359 343 340 335 321 297 252 234 197 213 224 192 194 239 229 235 239 237 227 219 214 222 236 241 247 241 238 238 228 225 222 211 204 205 202 205 193 191 180 180 183 182
1 348 347 337 338 324 307 313 261 231 236 231 223 213 226 215 239 232 220 224 221 212 217 235 239 235 242 240 241 237 227 227 224 211 207 206 211 201 191 185 181 183 185
351 354 339 331 334 329 316 305 304 248 225 227 225 224 238 244 237 228 203 200 216 212 216 218 222 220 224 230 229 234 232 227 224 216 217 215 212 206 192 190 183 183 186
340 337 333 331 327 325 311 302 297 287 275 212 212 210 191 212 201 217 223 210 213 209 213 206 222 219 218 219 226 229 226 231 223 222 216 220 213 209 199 190 187 184 187
349 341 340 335 322 314 303 297 288 281 280 262 215 221 238 176 193 204 229 216 208 202 210 211 219 218 211 209 215 215 216 226 228 220 213 215 214 209 207 194 191 187 189
348 347 342 340 329 317 297 282 282 283 268 262 245 209 222 223 229 200 205 210 220 222 225 221 222 228 212 211 209 211 213 221 226 227 221 216 217 215 205 197 195 192 190
340 346 341 331 323 313 310 302 285 268 266 265 261 235 218 214 205 208 213 201 212 216 219 221 226 223 215 213 216 212 205 214 225 226 226 223 221 215 207 201 199 196 195
340 341 333 328 322 311 304 295 285 276 266 255 255 258 235 234 225 216 221 220 216 211 214 228 228 226 216 211 219 215 212 213 216 224 228 225 221 222 220 205 199 200 197
337 333 330 319 317 317 308 302 290 280 269 254 256 254 244 235 226 219 214 211 225 224 217 219 213 219 211 211 214 211 216 217 214 220 230 235 233 229 229 216 205 200 198
339 336 324 323 326 323 318 312 308 296 290 274 253 246 246 232 230 229 225 212 211 229 231 231 227 211 214 208 212 205 210 215 215 221 228 226 231 232 229 224 215 201 194
344 341 342 339 336 336 324 331 318 309 295 299 252 252 246 233 233 232 228 227 223 228 242 213 215 213 212 209 209 209 210 209 206 219 226 226 227 229 230 228 223 205 185
350 348 351 351 351 346 352 337 325 318 314 305 290 250 252 235 232 235 232 227 226 221 229 232 210 197 192 199 208 211 209 202 204 214 223 224 226 229 230 219 197 184 176
359 358 359 3 1 358 352 346 336 331 317 312 302 290 249 248 235 235 232 228 224 219 221 232 202 190 195 191 203 215 214 206 203 208 217 219 216 222 227 207 190 180 177
2 7 9 9 8 5 1 357 353 355 348 345 339 339 278 245 242 237 231 229 221 224 222 230 217 191 193 177 194 213 213 205 201 205 211 215 212 208 202 192 186 185 187
8 9 10 10 14 13 10 10 10 10 7 5 2 0 357 2 348 292 234 231 234 224 223 221 216 207 185 194 204 215 208 206 199 180 200 208 212 215 212 200 199 197 199
9 16 13 15 16 21 16 15 16 17 16 13 12 5 359 353 346 341 318 234 227 232 232 223 213 195 188 197 205 202 202 192 194 172 186 190 194 206 212 218 210 212 210
11 18 15 16 18 20 16 19 21 20 22 20 15 11 4 359 351 344 344 324 320 239 224 214 205 196 194 207 198 201 186 177 201 190 184 197 195 196 176 169 211 220 217
9 20 22 20 18 19 17 17 17 19 24 23 19 17 10 4 2 347 349 358 48 44 44 276 208 202 197 197 194 197 196 200 197 175 172 193 184 199 124 103 347 241 227
9 20 27 25 20 15 18 18 14 12 20 27 22 16 14 12 10 1 353 14 24 34 30 23 29 349 327 232 199 200 200 179 96 140 154 191 168 187 138 65 30 5 239
15 18 26 25 24 17 20 19 17 15 18 22 20 15 17 15 14 13 17 19 16 27 359 26 40 24 13 10 329 164 170 169 177 189 179 159 172 167 167 227 13 27 10
18 20 24 26 21 20 19 20 23 19 16 16 19 18 17 19 17 20 20 17 13 9 354 358 24 31 12 8 9 15 171 182 173 173 192 164 160 156 201 282 30 27 33